Content
SEND FEEDBACK

Daily
Averages
Monthly
Summary
Greece

IOANNINA, GREECE


Home > Europe > Greece
Elevation: 1588 feet     Latitude: 39 40N     Longitude: 020 51E

WEATHER
 
SELECT A DAY
Number of Records: 282,904;   Date Range: 7/1/96 - 7/9/14
 
SHARE

PRINT THIS DATA

[ ← Previous Day ]
WEATHER ALMANAC - APRIL 3, 2013
[ Next Day → ]
[ °C ]   °F
Weather ElementAverageHighLow
Temperature56.3 °F64.4 °F (2:50 pm)50 °F (5:50 am)
Dewpoint50.5 °F55.4 °F (11:20 am)48.2 °F (6:50 am)
Humidity81.5 %100 % (1:50 am)51 % (3:00 pm)
Barometer29.59 in29.74 in (10:50 pm)29.53 in (1:50 am)
Wind Speed5.1 mph17.3 mph (3:20 pm)
Weather ElementAverage
Visibility6.4 mi
Wind DirectionSE (135.9 °)

Weather ElementTotal
Precipitation---
Heating Degree Days7.8 (Base 65)
Growing Degree Days7.2 (Base 50)
Averaged from 48 records on April 3, 2013
WEATHER CONDITIONS BREAKOUT
WIND DIRECTION BREAKOUT
WEATHER BY HOUR - APRIL 3, 2013
[ °C ]   °F
Local TimeTemperatureDewpointHumidityBarometerVisibilityWind DirectionWind SpeedGust SpeedPrecipitationEventsConditions
12:50 AM53.6 °F51.8 °F94 %29.56 in6.2 miCalmOvercast
1:20 AM53.6 °F51.8 °F94 %29.56 in6.2 miCalmMostly Cloudy
1:50 AM51.8 °F51.8 °F100 %29.53 in6.2 miCalmMostly Cloudy
2:20 AM51.8 °F51.8 °F100 %29.53 in6.2 miCalmMostly Cloudy
3:00 AM53.0 °F50.0 °F84 %29.55 in6.0 miCalmPartly Cloudy
3:20 AM51.8 °F50.0 °F94 %29.53 in6.2 miCalmMostly Cloudy
3:50 AM51.8 °F50.0 °F94 %29.53 in6.2 miCalmMostly Cloudy
4:20 AM51.8 °F50.0 °F94 %29.53 in6.2 miCalmScattered Clouds
4:50 AM51.8 °F50.0 °F94 %29.53 in6.2 miCalmScattered Clouds
5:20 AM51.8 °F50.0 °F94 %29.53 in6.2 miCalmScattered Clouds
5:50 AM50.0 °F50.0 °F100 %29.53 in6.2 miCalmScattered Clouds
6:20 AM50.0 °F50.0 °F100 %29.53 in6.2 miCalmPartly Cloudy
6:50 AM50.0 °F48.2 °F94 %29.53 in6.2 miCalmScattered Clouds
7:20 AM50.0 °F48.2 °F94 %29.53 in6.2 miCalmScattered Clouds
7:50 AM50.0 °F48.2 °F94 %29.53 in6.2 miCalmScattered Clouds
8:20 AM50.0 °F48.2 °F94 %29.53 in6.2 miCalmScattered Clouds
8:50 AM50.0 °F50.0 °F100 %29.56 in6.2 miCalmMostly Cloudy
9:00 AM50.0 °F50.0 °F98 %29.56 in9.0 miCalmScattered Clouds
9:20 AM51.8 °F50.0 °F94 %29.56 in6.2 miCalmMostly Cloudy
9:50 AM51.8 °F50.0 °F94 %29.56 in6.2 miCalmMostly Cloudy
10:20 AM53.6 °F51.8 °F94 %29.56 in6.2 miCalmRainLight Rain
10:50 AM57.2 °F53.6 °F88 %29.56 in6.2 miCalmMostly Cloudy
11:20 AM59.0 °F55.4 °F88 %29.56 in6.2 miSouth (180°)3.5 mphMostly Cloudy
11:50 AM60.8 °F53.6 °F77 %29.56 in6.2 miCalmMostly Cloudy
12:20 PM62.6 °F51.8 °F68 %29.59 in6.2 miWSW (250°)5.8 mphMostly Cloudy
12:50 PM60.8 °F51.8 °F72 %29.59 in6.2 miWest (270°)5.8 mphRainLight Rain Showers
1:20 PM62.6 °F53.6 °F72 %29.59 in6.2 miWSW (240°)5.8 mphScattered Clouds
1:50 PM62.6 °F51.8 °F68 %29.59 in6.2 miWest (270°)9.2 mphScattered Clouds
2:20 PM62.6 °F51.8 °F68 %29.59 in6.2 miWest (280°)8.1 mphScattered Clouds
2:50 PM64.4 °F50.0 °F59 %29.59 in6.2 miWest (260°)16.1 mphScattered Clouds
3:00 PM64.0 °F50.0 °F51 %29.60 in12.0 miWest (260°)16.1 mphPartly Cloudy
3:20 PM64.4 °F50.0 °F59 %29.59 in6.2 miWest (260°)17.3 mphScattered Clouds
4:20 PM64.4 °F50.0 °F59 %29.59 in6.2 miWest (270°)16.1 mphScattered Clouds
4:50 PM62.6 °F50.0 °F63 %29.62 in6.2 miWest (280°)16.1 mphScattered Clouds
5:20 PM62.6 °F50.0 °F63 %29.62 in6.2 miNW (310°)13.8 mphScattered Clouds
5:50 PM62.6 °F50.0 °F63 %29.62 in6.2 miNW (310°)15.0 mphScattered Clouds
6:20 PM62.6 °F50.0 °F63 %29.62 in6.2 miNW (320°)13.8 mphScattered Clouds
6:50 PM60.8 °F50.0 °F68 %29.62 in6.2 miNW (320°)13.8 mphMostly Cloudy
7:20 PM59.0 °F50.0 °F72 %29.62 in6.2 miNW (320°)11.5 mphMostly Cloudy
7:50 PM59.0 °F50.0 °F72 %29.65 in6.2 miNW (310°)11.5 mphMostly Cloudy
8:20 PM57.2 °F50.0 °F77 %29.65 in6.2 miNW (310°)11.5 mphMostly Cloudy
8:50 PM57.2 °F50.0 °F77 %29.68 in6.2 miNW (320°)9.2 mphMostly Cloudy
9:00 PM57.0 °F50.0 °F69 %29.68 in6.0 miNW (320°)9.2 mphPartly Cloudy
9:20 PM55.4 °F50.0 °F82 %29.68 in6.2 miWNW (290°)6.9 mphMostly Cloudy
10:20 PM55.4 °F48.2 °F77 %29.71 in6.2 miWNW (300°)6.9 mphScattered Clouds
10:50 PM55.4 °F50.0 °F82 %29.74 in6.2 miCalmScattered Clouds
11:20 PM55.4 °F50.0 °F82 %29.74 in6.2 miCalmScattered Clouds
11:50 PM55.4 °F48.2 °F77 %29.74 in6.2 miCalmScattered Clouds
Hourly data recorded from LGIO, located miles away from Ioannina, Greece







STORIES FROM OUR PARTNERS